| time (UTC) | temp F | wind direction | speed MPH | gust MPH | rain 1hr in | rain 24hr in | rain mn in | humidity % | barometer mb |
| 20260503232104 | 83 | 77 | 2.0 | 6.0 | 0.00 | 0.00 | 0.00 | 40 | 1020.2 |
| 20260503231604 | 83 | 77 | 2.0 | 6.0 | 0.00 | 0.00 | 0.00 | 40 | 1020.2 |
| 20260503231103 | 83 | 77 | 2.0 | 6.0 | 0.00 | 0.00 | 0.00 | 41 | 1020.1 |
| 20260503230604 | 83 | 77 | 2.0 | 6.0 | 0.00 | 0.00 | 0.00 | 40 | 1020.1 |
| 20260503225604 | 82 | 77 | 2.0 | 6.0 | 0.00 | 0.00 | 0.00 | 39 | 1020.2 |
| 20260503225103 | 82 | 77 | 2.0 | 6.0 | 0.00 | 0.00 | 0.00 | 40 | 1020.2 |
| 20260503224104 | 81 | 77 | 2.0 | 6.0 | 0.00 | 0.00 | 0.00 | 41 | 1020.3 |
| 20260503223103 | 81 | 77 | 2.0 | 6.0 | 0.00 | 0.00 | 0.00 | 43 | 1020.4 |
| 20260503222603 | 81 | 77 | 2.0 | 6.0 | 0.00 | 0.00 | 0.00 | 43 | 1020.5 |
| 20260503222104 | 81 | 77 | 2.0 | 6.0 | 0.00 | 0.00 | 0.00 | 43 | 1020.6 |
| 20260503221103 | 81 | 77 | 2.0 | 6.0 | 0.00 | 0.00 | 0.00 | 43 | 1020.7 |
| 20260503220604 | 81 | 77 | 2.0 | 6.0 | 0.00 | 0.00 | 0.00 | 42 | 1020.7 |
| 20260503220103 | 81 | 77 | 2.0 | 6.0 | 0.00 | 0.00 | 0.00 | 42 | 1020.8 |
| 20260503215603 | 81 | 77 | 2.0 | 6.0 | 0.00 | 0.00 | 0.00 | 43 | 1020.8 |
| 20260503215103 | 81 | 77 | 2.0 | 6.0 | 0.00 | 0.00 | 0.00 | 43 | 1020.7 |
| 20260503214603 | 81 | 77 | 2.0 | 6.0 | 0.00 | 0.00 | 0.00 | 43 | 1020.8 |
| 20260503214103 | 82 | 77 | 2.0 | 6.0 | 0.00 | 0.00 | 0.00 | 43 | 1020.9 |
| 20260503213604 | 82 | 77 | 2.0 | 6.0 | 0.00 | 0.00 | 0.00 | 42 | 1021.0 |
| 20260503213103 | 82 | 77 | 2.0 | 6.0 | 0.00 | 0.00 | 0.00 | 41 | 1020.9 |
| 20260503212603 | 82 | 77 | 2.0 | 6.0 | 0.00 | 0.00 | 0.00 | 42 | 1020.8 |
| 20260503212103 | 82 | 77 | 2.0 | 6.0 | 0.00 | 0.00 | 0.00 | 42 | 1020.9 |
| 20260503211103 | 82 | 77 | 2.0 | 6.0 | 0.00 | 0.00 | 0.00 | 43 | 1020.8 |
| 20260503210603 | 82 | 77 | 2.0 | 6.0 | 0.00 | 0.00 | 0.00 | 43 | 1020.8 |
| 20260503210104 | 82 | 77 | 2.0 | 6.0 | 0.00 | 0.00 | 0.00 | 42 | 1020.9 |
| 20260503203603 | 82 | 77 | 2.0 | 6.0 | 0.00 | 0.00 | 0.00 | 42 | 1021.3 |
| 20260503203103 | 83 | 77 | 2.0 | 6.0 | 0.00 | 0.00 | 0.00 | 41 | 1021.3 |
| 20260503202603 | 83 | 77 | 2.0 | 6.0 | 0.00 | 0.00 | 0.00 | 41 | 1021.3 |
| 20260503202104 | 82 | 77 | 2.0 | 6.0 | 0.00 | 0.00 | 0.00 | 42 | 1021.4 |
| 20260503201104 | 82 | 77 | 2.0 | 6.0 | 0.00 | 0.00 | 0.00 | 43 | 1021.5 |
| 20260503200104 | 82 | 77 | 2.0 | 6.0 | 0.00 | 0.00 | 0.00 | 43 | 1021.6 |
| 20260503195604 | 82 | 77 | 2.0 | 6.0 | 0.00 | 0.00 | 0.00 | 43 | 1021.8 |
| 20260503194603 | 81 | 77 | 2.0 | 6.0 | 0.00 | 0.00 | 0.00 | 45 | 1021.8 |
| 20260503194103 | 81 | 77 | 2.0 | 6.0 | 0.00 | 0.00 | 0.00 | 45 | 1021.9 |
| 20260503193603 | 81 | 77 | 2.0 | 6.0 | 0.00 | 0.00 | 0.00 | 45 | 1022.0 |
| 20260503193104 | 81 | 77 | 2.0 | 6.0 | 0.00 | 0.00 | 0.00 | 44 | 1022.1 |
| 20260503192603 | 82 | 77 | 2.0 | 6.0 | 0.00 | 0.00 | 0.00 | 45 | 1022.2 |
| 20260503192103 | 81 | 77 | 2.0 | 6.0 | 0.00 | 0.00 | 0.00 | 44 | 1022.2 |
| 20260503191604 | 81 | 77 | 2.0 | 6.0 | 0.00 | 0.00 | 0.00 | 45 | 1022.2 |
| 20260503191103 | 81 | 77 | 2.0 | 6.0 | 0.00 | 0.00 | 0.00 | 45 | 1022.3 |
| 20260503190604 | 81 | 77 | 2.0 | 6.0 | 0.00 | 0.00 | 0.00 | 45 | 1022.4 |
| 20260503190104 | 80 | 77 | 2.0 | 6.0 | 0.00 | 0.00 | 0.00 | 45 | 1022.4 |
| 20260503185603 | 80 | 77 | 2.0 | 6.0 | 0.00 | 0.00 | 0.00 | 46 | 1022.5 |
| 20260503185104 | 80 | 77 | 2.0 | 6.0 | 0.00 | 0.00 | 0.00 | 47 | 1022.5 |
| 20260503184603 | 80 | 77 | 2.0 | 6.0 | 0.00 | 0.00 | 0.00 | 47 | 1022.6 |
| 20260503184104 | 80 | 77 | 2.0 | 6.0 | 0.00 | 0.00 | 0.00 | 47 | 1022.7 |
| 20260503183104 | 80 | 77 | 2.0 | 6.0 | 0.00 | 0.00 | 0.00 | 47 | 1022.8 |
| 20260503182604 | 80 | 77 | 2.0 | 6.0 | 0.00 | 0.00 | 0.00 | 47 | 1022.8 |
| 20260503181604 | 79 | 77 | 2.0 | 6.0 | 0.00 | 0.00 | 0.00 | 49 | 1023.0 |
| 20260503181103 | 79 | 77 | 2.0 | 6.0 | 0.00 | 0.00 | 0.00 | 49 | 1023.0 |
| 20260503180103 | 79 | 77 | 2.0 | 6.0 | 0.00 | 0.00 | 0.00 | 49 | 1023.0 |
| 20260503175604 | 79 | 77 | 2.0 | 6.0 | 0.00 | 0.00 | 0.00 | 49 | 1023.1 |
| 20260503175103 | 79 | 77 | 2.0 | 6.0 | 0.00 | 0.00 | 0.00 | 49 | 1023.1 |
| 20260503173604 | 78 | 77 | 2.0 | 6.0 | 0.00 | 0.00 | 0.00 | 48 | 1023.2 |
| 20260503173103 | 78 | 77 | 2.0 | 6.0 | 0.00 | 0.00 | 0.00 | 50 | 1023.3 |
| 20260503172604 | 78 | 77 | 2.0 | 6.0 | 0.00 | 0.00 | 0.00 | 50 | 1023.3 |
| 20260503171604 | 77 | 77 | 2.0 | 6.0 | 0.00 | 0.00 | 0.00 | 51 | 1023.5 |
| 20260503171104 | 77 | 77 | 2.0 | 6.0 | 0.00 | 0.00 | 0.00 | 49 | 1023.6 |
| 20260503170603 | 77 | 77 | 2.0 | 6.0 | 0.00 | 0.00 | 0.00 | 50 | 1023.6 |
| 20260503170104 | 77 | 77 | 2.0 | 6.0 | 0.00 | 0.00 | 0.00 | 50 | 1023.7 |
| 20260503150603 | 72 | 77 | 2.0 | 6.0 | 0.00 | 0.00 | 0.00 | 58 | 1024.2 |
| 20260503150104 | 71 | 77 | 2.0 | 6.0 | 0.00 | 0.00 | 0.00 | 59 | 1024.1 |
| 20260503140104 | 64 | 77 | 2.0 | 6.0 | 0.00 | 0.00 | 0.00 | 66 | 1023.8 |
| 20260503131104 | 61 | 77 | 2.0 | 6.0 | 0.00 | 0.00 | 0.00 | 71 | 1023.3 |
| 20260503130603 | 61 | 77 | 2.0 | 6.0 | 0.00 | 0.00 | 0.00 | 72 | 1023.3 |
| 20260503130104 | 61 | 77 | 2.0 | 6.0 | 0.00 | 0.00 | 0.00 | 72 | 1023.2 |
| 20260503110603 | 60 | 77 | 2.0 | 6.0 | 0.00 | 0.00 | 0.00 | 73 | 1022.3 |
| 20260503081603 | 64 | 77 | 2.0 | 6.0 | 0.00 | 0.00 | 0.00 | 64 | 1022.0 |
| 20260503081104 | 64 | 77 | 2.0 | 6.0 | 0.00 | 0.00 | 0.00 | 65 | 1022.0 |
| 20260503080603 | 64 | 77 | 2.0 | 6.0 | 0.00 | 0.00 | 0.00 | 65 | 1022.1 |
| 20260503072604 | 65 | 77 | 2.0 | 6.0 | 0.00 | 0.00 | 0.00 | 64 | 1021.9 |
| 20260503072103 | 64 | 77 | 2.0 | 6.0 | 0.00 | 0.00 | 0.00 | 66 | 1022.0 |
| 20260503071603 | 64 | 77 | 2.0 | 6.0 | 0.00 | 0.00 | 0.00 | 67 | 1022.0 |
| 20260503071103 | 63 | 77 | 2.0 | 6.0 | 0.00 | 0.00 | 0.00 | 67 | 1022.0 |
| 20260503070603 | 63 | 77 | 2.0 | 6.0 | 0.00 | 0.00 | 0.00 | 68 | 1022.1 |
| 20260503070103 | 63 | 77 | 2.0 | 6.0 | 0.00 | 0.00 | 0.00 | 69 | 1022.1 |
| 20260503060103 | 66 | 77 | 2.0 | 6.0 | 0.00 | 0.00 | 0.00 | 64 | 1022.4 |
| 20260503054604 | 67 | 77 | 2.0 | 6.0 | 0.00 | 0.00 | 0.00 | 61 | 1022.3 |
| 20260503053103 | 67 | 77 | 2.0 | 6.0 | 0.00 | 0.00 | 0.00 | 61 | 1022.2 |
| 20260503052603 | 67 | 77 | 2.0 | 6.0 | 0.00 | 0.00 | 0.00 | 61 | 1022.2 |
| 20260503052104 | 67 | 77 | 2.0 | 6.0 | 0.00 | 0.00 | 0.00 | 61 | 1022.3 |
| 20260503051603 | 67 | 77 | 2.0 | 6.0 | 0.00 | 0.00 | 0.00 | 61 | 1022.3 |
| 20260503051103 | 67 | 77 | 2.0 | 6.0 | 0.00 | 0.00 | 0.00 | 60 | 1022.3 |
| 20260503050604 | 67 | 77 | 2.0 | 6.0 | 0.00 | 0.00 | 0.00 | 60 | 1022.2 |
| 20260503045604 | 68 | 77 | 2.0 | 6.0 | 0.00 | 0.00 | 0.00 | 59 | 1022.1 |
| 20260503044604 | 69 | 77 | 2.0 | 6.0 | 0.00 | 0.00 | 0.00 | 55 | 1022.1 |
| 20260503044104 | 69 | 77 | 2.0 | 6.0 | 0.00 | 0.00 | 0.00 | 54 | 1022.0 |
| 20260503043604 | 69 | 77 | 2.0 | 6.0 | 0.00 | 0.00 | 0.00 | 56 | 1022.0 |
| 20260503043103 | 69 | 77 | 2.0 | 6.0 | 0.00 | 0.00 | 0.00 | 56 | 1022.0 |
| 20260503042604 | 68 | 77 | 2.0 | 6.0 | 0.00 | 0.00 | 0.00 | 57 | 1022.0 |
| 20260503042103 | 69 | 77 | 2.0 | 6.0 | 0.00 | 0.00 | 0.00 | 57 | 1022.0 |
| 20260503041604 | 69 | 77 | 2.0 | 6.0 | 0.00 | 0.00 | 0.00 | 58 | 1022.0 |
| 20260503041104 | 69 | 77 | 2.0 | 6.0 | 0.00 | 0.00 | 0.00 | 57 | 1021.8 |
| 20260503040604 | 70 | 77 | 2.0 | 6.0 | 0.00 | 0.00 | 0.00 | 56 | 1021.7 |
| 20260503040104 | 70 | 77 | 2.0 | 6.0 | 0.00 | 0.00 | 0.00 | 55 | 1021.7 |
| 20260503035604 | 70 | 77 | 2.0 | 6.0 | 0.00 | 0.00 | 0.00 | 55 | 1021.6 |
| 20260503035104 | 71 | 77 | 2.0 | 6.0 | 0.00 | 0.00 | 0.00 | 54 | 1021.5 |
| 20260503034103 | 71 | 77 | 2.0 | 6.0 | 0.00 | 0.00 | 0.00 | 53 | 1021.4 |
| 20260503033604 | 71 | 77 | 2.0 | 6.0 | 0.00 | 0.00 | 0.00 | 53 | 1021.4 |
| 20260503032604 | 71 | 77 | 2.0 | 6.0 | 0.00 | 0.00 | 0.00 | 53 | 1021.3 |
| 20260503031603 | 71 | 77 | 2.0 | 6.0 | 0.00 | 0.00 | 0.00 | 53 | 1021.3 |
| 20260503030604 | 71 | 77 | 2.0 | 6.0 | 0.00 | 0.00 | 0.00 | 53 | 1021.1 |
| 20260503030103 | 71 | 77 | 2.0 | 6.0 | 0.00 | 0.00 | 0.00 | 52 | 1021.0 |
| 20260503025603 | 71 | 77 | 2.0 | 6.0 | 0.00 | 0.00 | 0.00 | 53 | 1020.9 |
| 20260503025103 | 71 | 77 | 2.0 | 6.0 | 0.00 | 0.00 | 0.00 | 53 | 1020.9 |
| 20260503024603 | 71 | 77 | 2.0 | 6.0 | 0.00 | 0.00 | 0.00 | 53 | 1020.8 |
| 20260503024104 | 72 | 77 | 2.0 | 6.0 | 0.00 | 0.00 | 0.00 | 53 | 1020.8 |
| 20260503023604 | 72 | 77 | 2.0 | 6.0 | 0.00 | 0.00 | 0.00 | 53 | 1020.8 |
| 20260503023104 | 73 | 77 | 2.0 | 6.0 | 0.00 | 0.00 | 0.00 | 53 | 1020.8 |
| 20260503022604 | 73 | 77 | 2.0 | 6.0 | 0.00 | 0.00 | 0.00 | 52 | 1020.7 |
| 20260503022103 | 74 | 77 | 2.0 | 6.0 | 0.00 | 0.00 | 0.00 | 52 | 1020.7 |
| 20260503020603 | 76 | 77 | 2.0 | 6.0 | 0.00 | 0.00 | 0.00 | 47 | 1020.6 |
| 20260503015604 | 78 | 77 | 2.0 | 6.0 | 0.00 | 0.00 | 0.00 | 45 | 1020.4 |
| 20260503015104 | 78 | 77 | 2.0 | 6.0 | 0.00 | 0.00 | 0.00 | 43 | 1020.3 |
| 20260503014604 | 78 | 77 | 2.0 | 6.0 | 0.00 | 0.00 | 0.00 | 43 | 1020.3 |
| 20260503014103 | 79 | 77 | 2.0 | 6.0 | 0.00 | 0.00 | 0.00 | 43 | 1020.2 |
| 20260503013604 | 79 | 77 | 2.0 | 6.0 | 0.00 | 0.00 | 0.00 | 43 | 1020.1 |
| 20260503013104 | 79 | 77 | 2.0 | 6.0 | 0.00 | 0.00 | 0.00 | 43 | 1020.1 |
| 20260503012103 | 79 | 77 | 2.0 | 6.0 | 0.00 | 0.00 | 0.00 | 43 | 1019.9 |
| 20260503011603 | 79 | 77 | 2.0 | 6.0 | 0.00 | 0.00 | 0.00 | 43 | 1019.8 |
| 20260503010604 | 79 | 77 | 2.0 | 6.0 | 0.00 | 0.00 | 0.00 | 44 | 1019.7 |
| 20260503010103 | 80 | 77 | 2.0 | 6.0 | 0.00 | 0.00 | 0.00 | 43 | 1019.7 |
| 20260503005604 | 80 | 77 | 2.0 | 6.0 | 0.00 | 0.00 | 0.00 | 43 | 1019.6 |
| 20260503005104 | 80 | 77 | 2.0 | 6.0 | 0.00 | 0.00 | 0.00 | 42 | 1019.5 |
| 20260503004104 | 81 | 77 | 2.0 | 6.0 | 0.00 | 0.00 | 0.00 | 41 | 1019.3 |
| 20260503003604 | 81 | 77 | 2.0 | 6.0 | 0.00 | 0.00 | 0.00 | 41 | 1019.2 |
| 20260503003104 | 81 | 77 | 2.0 | 6.0 | 0.00 | 0.00 | 0.00 | 41 | 1019.2 |
| 20260503002104 | 82 | 77 | 2.0 | 6.0 | 0.00 | 0.00 | 0.00 | 40 | 1019.1 |
| 20260503001604 | 82 | 77 | 2.0 | 6.0 | 0.00 | 0.00 | 0.00 | 40 | 1019.1 |
| 20260503001104 | 82 | 77 | 2.0 | 6.0 | 0.00 | 0.00 | 0.00 | 41 | 1019.1 |
| 20260503000604 | 83 | 77 | 2.0 | 6.0 | 0.00 | 0.00 | 0.00 | 40 | 1019.0 |
| 20260503000104 | 83 | 77 | 2.0 | 6.0 | 0.00 | 0.00 | 0.00 | 40 | 1019.0 |
| 20260502235604 | 83 | 77 | 2.0 | 6.0 | 0.00 | 0.00 | 0.00 | 39 | 1019.0 |
| 20260502235104 | 83 | 77 | 2.0 | 6.0 | 0.00 | 0.00 | 0.00 | 40 | 1019.0 |
| 20260502234604 | 82 | 77 | 2.0 | 6.0 | 0.00 | 0.00 | 0.00 | 39 | 1018.9 |
| 20260502233604 | 82 | 77 | 2.0 | 6.0 | 0.00 | 0.00 | 0.00 | 40 | 1018.9 |
| 20260502233104 | 83 | 77 | 2.0 | 6.0 | 0.00 | 0.00 | 0.00 | 39 | 1018.8 |
| 20260502232604 | 83 | 77 | 2.0 | 6.0 | 0.00 | 0.00 | 0.00 | 39 | 1018.8 |